Time,TemperatureF,DewpointF,PressureIn,WindDirection,WindDirectionDegrees,WindSpeedMPH,WindSpeedGustMPH,Humidity,HourlyPrecipIn,Conditions,Clouds,dailyrainin,SoftwareType,DateUTC
2013-09-05 00:09:00,57.5,56.0,30.03,East,85,0.0,-999.0,94,-99.99,,,0.03,weatherlink.com 1.10,2013-09-05 04:09:00,
2013-09-05 00:24:00,57.0,56.0,30.03,East,85,0.0,-999.0,96,-99.99,,,0.00,weatherlink.com 1.10,2013-09-05 04:24:00,
2013-09-05 00:39:00,56.6,56.0,30.04,East,85,0.0,-999.0,96,-99.99,,,0.00,weatherlink.com 1.10,2013-09-05 04:39:00,
2013-09-05 00:54:00,56.2,55.0,30.04,East,85,0.0,-999.0,97,-99.99,,,0.00,weatherlink.com 1.10,2013-09-05 04:54:00,
2013-09-05 01:09:00,56.0,55.0,30.04,East,85,0.0,-999.0,97,-99.99,,,0.00,weatherlink.com 1.10,2013-09-05 05:09:00,
2013-09-05 01:24:00,56.3,56.0,30.04,East,85,0.0,-999.0,98,-99.99,,,0.01,weatherlink.com 1.10,2013-09-05 05:24:00,
2013-09-05 01:39:00,56.2,56.0,30.02,East,85,0.0,-999.0,98,-99.99,,,0.01,weatherlink.com 1.10,2013-09-05 05:39:00,
2013-09-05 01:54:00,56.0,56.0,30.02,East,85,0.0,-999.0,98,-99.99,,,0.01,weatherlink.com 1.10,2013-09-05 05:54:00,
2013-09-05 02:09:00,55.9,55.0,30.02,East,85,0.0,-999.0,98,-99.99,,,0.01,weatherlink.com 1.10,2013-09-05 06:09:00,
2013-09-05 02:24:00,56.0,56.0,30.02,East,85,0.0,-999.0,99,-99.99,,,0.01,weatherlink.com 1.10,2013-09-05 06:24:00,
2013-09-05 02:39:00,55.9,56.0,30.01,East,85,0.0,-999.0,99,-99.99,,,0.01,weatherlink.com 1.10,2013-09-05 06:39:00,
2013-09-05 02:54:00,55.6,55.0,30.01,East,85,0.0,-999.0,99,-99.99,,,0.01,weatherlink.com 1.10,2013-09-05 06:54:00,
2013-09-05 03:10:00,55.1,55.0,30.01,East,92,0.0,-999.0,98,-99.99,,,0.01,weatherlink.com 1.10,2013-09-05 07:10:00,
2013-09-05 03:25:00,55.9,56.0,30.01,South,175,0.0,-999.0,100,-99.99,,,0.01,weatherlink.com 1.10,2013-09-05 07:25:00,
2013-09-05 03:40:00,56.2,56.0,30.00,South,175,0.0,-999.0,100,-99.99,,,0.01,weatherlink.com 1.10,2013-09-05 07:40:00,
2013-09-05 03:55:00,55.6,55.0,30.00,South,176,0.0,-999.0,99,-99.99,,,0.01,weatherlink.com 1.10,2013-09-05 07:55:00,
2013-09-05 04:10:00,55.0,55.0,30.00,South,176,0.0,-999.0,99,-99.99,,,0.01,weatherlink.com 1.10,2013-09-05 08:10:00,
2013-09-05 04:25:00,55.1,55.0,30.00,South,176,0.0,-999.0,99,-99.99,,,0.01,weatherlink.com 1.10,2013-09-05 08:25:00,
2013-09-05 04:40:00,54.8,55.0,30.01,South,178,0.0,-999.0,99,-99.99,,,0.01,weatherlink.com 1.10,2013-09-05 08:40:00,
2013-09-05 04:55:00,54.8,55.0,30.01,South,178,0.0,-999.0,100,-99.99,,,0.01,weatherlink.com 1.10,2013-09-05 08:55:00,
2013-09-05 05:10:00,55.1,55.0,30.00,South,178,0.0,-999.0,100,-99.99,,,0.01,weatherlink.com 1.10,2013-09-05 09:10:00,
2013-09-05 05:25:00,55.4,55.0,30.00,SSW,203,1.0,-999.0,100,-99.99,,,0.01,weatherlink.com 1.10,2013-09-05 09:25:00,
2013-09-05 05:40:00,56.3,56.0,30.00,SSW,212,0.0,-999.0,98,-99.99,,,0.01,weatherlink.com 1.10,2013-09-05 09:40:00,
2013-09-05 05:55:00,56.9,56.0,30.01,WSW,247,0.0,-999.0,96,-99.99,,,0.01,weatherlink.com 1.10,2013-09-05 09:55:00,
2013-09-05 06:10:00,57.0,55.0,30.01,SW,219,0.0,-999.0,94,-99.99,,,0.01,weatherlink.com 1.10,2013-09-05 10:10:00,
2013-09-05 06:25:00,56.7,55.0,30.02,WNW,287,2.0,-999.0,94,-99.99,,,0.01,weatherlink.com 1.10,2013-09-05 10:25:00,
2013-09-05 06:40:00,56.6,55.0,30.02,SSW,208,0.0,-999.0,94,-99.99,,,0.01,weatherlink.com 1.10,2013-09-05 10:40:00,
2013-09-05 06:55:00,56.6,55.0,30.02,SSW,192,0.0,-999.0,94,-99.99,,,0.01,weatherlink.com 1.10,2013-09-05 10:55:00,
2013-09-05 07:10:00,56.7,55.0,30.02,SSW,193,0.0,-999.0,94,-99.99,,,0.01,weatherlink.com 1.10,2013-09-05 11:10:00,
2013-09-05 07:25:00,56.9,55.0,30.03,SSW,212,0.0,-999.0,94,-99.99,,,0.01,weatherlink.com 1.10,2013-09-05 11:25:00,
2013-09-05 07:40:00,57.3,56.0,30.05,SSW,209,1.0,-999.0,94,-99.99,,,0.01,weatherlink.com 1.10,2013-09-05 11:40:00,
2013-09-05 07:55:00,58.1,56.0,30.05,SSW,202,0.0,-999.0,93,-99.99,,,0.01,weatherlink.com 1.10,2013-09-05 11:55:00,
2013-09-05 08:10:00,58.9,57.0,30.05,SW,234,1.0,-999.0,93,-99.99,,,0.01,weatherlink.com 1.10,2013-09-05 12:10:00,
2013-09-05 08:25:00,60.2,58.0,30.04,SSW,195,2.0,-999.0,91,-99.99,,,0.01,weatherlink.com 1.10,2013-09-05 12:25:00,
2013-09-05 08:40:00,60.9,58.0,30.05,SSW,210,0.0,-999.0,89,-99.99,,,0.01,weatherlink.com 1.10,2013-09-05 12:40:00,
2013-09-05 08:55:00,61.3,58.0,30.05,SSW,203,0.0,-999.0,88,-99.99,,,0.01,weatherlink.com 1.10,2013-09-05 12:55:00,
2013-09-05 09:10:00,62.4,59.0,30.04,SSW,193,1.0,-999.0,87,-99.99,,,0.01,weatherlink.com 1.10,2013-09-05 13:10:00,
2013-09-05 09:25:00,63.1,59.0,30.04,West,280,0.0,-999.0,85,-99.99,,,0.01,weatherlink.com 1.10,2013-09-05 13:25:00,
2013-09-05 09:40:00,64.8,59.0,30.05,SSW,198,0.0,-999.0,81,-99.99,,,0.01,weatherlink.com 1.10,2013-09-05 13:40:00,
2013-09-05 09:55:00,66.1,59.0,30.04,NE,45,0.0,-999.0,78,-99.99,,,0.01,weatherlink.com 1.10,2013-09-05 13:55:00,
2013-09-05 10:10:00,67.1,59.0,30.05,SW,226,0.0,-999.0,75,-99.99,,,0.01,weatherlink.com 1.10,2013-09-05 14:10:00,
2013-09-05 10:25:00,67.8,59.0,30.03,West,271,0.0,-999.0,74,-99.99,,,0.01,weatherlink.com 1.10,2013-09-05 14:25:00,
2013-09-05 10:40:00,68.4,59.0,30.04,SSW,210,0.0,-999.0,73,-99.99,,,0.01,weatherlink.com 1.10,2013-09-05 14:40:00,
2013-09-05 10:56:00,69.8,60.0,30.05,NW,325,0.0,-999.0,72,-99.99,,,0.01,weatherlink.com 1.10,2013-09-05 14:56:00,
2013-09-05 11:11:00,71.3,60.0,30.03,West,261,0.0,-999.0,67,-99.99,,,0.01,weatherlink.com 1.10,2013-09-05 15:11:00,
2013-09-05 11:26:00,72.0,60.0,30.03,West,275,0.0,-999.0,66,-99.99,,,0.01,weatherlink.com 1.10,2013-09-05 15:26:00,
2013-09-05 11:41:00,73.9,61.0,30.03,SSE,160,0.0,-999.0,65,-99.99,,,0.01,weatherlink.com 1.10,2013-09-05 15:41:00,
2013-09-05 11:56:00,74.9,61.0,30.03,South,178,0.0,-999.0,62,-99.99,,,0.01,weatherlink.com 1.10,2013-09-05 15:56:00,
2013-09-05 12:11:00,74.7,61.0,30.03,South,191,0.0,-999.0,63,-99.99,,,0.01,weatherlink.com 1.10,2013-09-05 16:11:00,
2013-09-05 12:26:00,75.1,61.0,30.03,WSW,240,1.0,-999.0,62,-99.99,,,0.01,weatherlink.com 1.10,2013-09-05 16:26:00,
2013-09-05 12:41:00,76.1,61.0,30.03,NNW,330,0.0,-999.0,60,-99.99,,,0.01,weatherlink.com 1.10,2013-09-05 16:41:00,
2013-09-05 12:56:00,76.1,61.0,30.02,ENE,65,0.0,-999.0,60,-99.99,,,0.01,weatherlink.com 1.10,2013-09-05 16:56:00,
2013-09-05 13:11:00,76.3,62.0,30.02,East,80,0.0,-999.0,61,-99.99,,,0.01,weatherlink.com 1.10,2013-09-05 17:11:00,
2013-09-05 13:26:00,76.3,62.0,30.02,NE,54,0.0,-999.0,61,-99.99,,,0.01,weatherlink.com 1.10,2013-09-05 17:26:00,
2013-09-05 13:41:00,76.8,61.0,30.02,WSW,247,1.0,-999.0,59,-99.99,,,0.01,weatherlink.com 1.10,2013-09-05 17:41:00,
2013-09-05 13:56:00,77.4,59.0,30.02,SSE,165,0.0,-999.0,54,-99.99,,,0.01,weatherlink.com 1.10,2013-09-05 17:56:00,
2013-09-05 14:11:00,78.6,62.0,30.01,ESE,116,0.0,-999.0,57,-99.99,,,0.01,weatherlink.com 1.10,2013-09-05 18:11:00,
2013-09-05 14:26:00,78.6,62.0,30.01,WNW,294,0.0,-999.0,57,-99.99,,,0.01,weatherlink.com 1.10,2013-09-05 18:26:00,
2013-09-05 14:41:00,79.6,63.0,30.01,NNW,340,1.0,-999.0,57,-99.99,,,0.01,weatherlink.com 1.10,2013-09-05 18:41:00,
2013-09-05 14:56:00,79.9,62.0,30.00,NNE,14,0.0,-999.0,54,-99.99,,,0.01,weatherlink.com 1.10,2013-09-05 18:56:00,
2013-09-05 15:11:00,80.9,60.0,30.00,North,0,0.0,-999.0,49,-99.99,,,0.01,weatherlink.com 1.10,2013-09-05 19:11:00,
2013-09-05 15:26:00,79.9,58.0,29.99,ENE,76,0.0,-999.0,48,-99.99,,,0.01,weatherlink.com 1.10,2013-09-05 19:26:00,
2013-09-05 15:41:00,79.9,58.0,30.00,South,181,0.0,-999.0,48,-99.99,,,0.01,weatherlink.com 1.10,2013-09-05 19:41:00,
2013-09-05 15:56:00,79.8,59.0,29.99,NNE,16,0.0,-999.0,49,-99.99,,,0.01,weatherlink.com 1.10,2013-09-05 19:56:00,
2013-09-05 16:11:00,79.0,58.0,29.99,ESE,110,0.0,-999.0,49,-99.99,,,0.01,weatherlink.com 1.10,2013-09-05 20:11:00,
2013-09-05 16:26:00,78.8,58.0,29.99,South,172,0.0,-999.0,49,-99.99,,,0.01,weatherlink.com 1.10,2013-09-05 20:26:00,
2013-09-05 16:41:00,79.0,58.0,29.99,East,89,0.0,-999.0,49,-99.99,,,0.01,weatherlink.com 1.10,2013-09-05 20:41:00,
2013-09-05 16:56:00,79.0,53.0,29.99,SE,131,1.0,-999.0,41,-99.99,,,0.01,weatherlink.com 1.10,2013-09-05 20:56:00,
2013-09-05 17:11:00,79.2,53.0,29.99,ENE,64,0.0,-999.0,40,-99.99,,,0.01,weatherlink.com 1.10,2013-09-05 21:11:00,
2013-09-05 17:26:00,78.6,52.0,29.99,North,11,0.0,-999.0,40,-99.99,,,0.01,weatherlink.com 1.10,2013-09-05 21:26:00,
2013-09-05 17:41:00,77.0,51.0,29.99,SSE,150,3.0,-999.0,40,-99.99,,,0.01,weatherlink.com 1.10,2013-09-05 21:41:00,
2013-09-05 17:56:00,74.7,53.0,29.99,East,97,0.0,-999.0,47,-99.99,,,0.01,weatherlink.com 1.10,2013-09-05 21:56:00,
2013-09-05 18:11:00,72.8,54.0,30.00,SSW,198,0.0,-999.0,51,-99.99,,,0.01,weatherlink.com 1.10,2013-09-05 22:11:00,
2013-09-05 18:26:00,71.6,55.0,30.00,SE,124,0.0,-999.0,56,-99.99,,,0.01,weatherlink.com 1.10,2013-09-05 22:26:00,
2013-09-05 18:41:00,70.6,54.0,30.01,SE,136,0.0,-999.0,57,-99.99,,,0.01,weatherlink.com 1.10,2013-09-05 22:41:00,
2013-09-05 18:56:00,69.9,55.0,30.01,South,179,0.0,-999.0,60,-99.99,,,0.01,weatherlink.com 1.10,2013-09-05 22:56:00,
2013-09-05 19:11:00,68.4,54.0,30.02,South,179,0.0,-999.0,60,-99.99,,,0.01,weatherlink.com 1.10,2013-09-05 23:11:00,
2013-09-05 19:26:00,66.9,52.0,30.02,South,174,0.0,-999.0,60,-99.99,,,0.01,weatherlink.com 1.10,2013-09-05 23:26:00,
2013-09-05 19:41:00,66.1,52.0,30.02,South,174,0.0,-999.0,60,-99.99,,,0.01,weatherlink.com 1.10,2013-09-05 23:41:00,
2013-09-05 19:56:00,65.3,51.0,30.03,South,174,0.0,-999.0,60,-99.99,,,0.01,weatherlink.com 1.10,2013-09-05 23:56:00,
2013-09-05 20:11:00,64.5,59.0,30.03,South,174,0.0,-999.0,82,-99.99,,,0.01,weatherlink.com 1.10,2013-09-06 00:11:00,
2013-09-05 20:26:00,63.9,59.0,30.03,South,174,0.0,-999.0,83,-99.99,,,0.01,weatherlink.com 1.10,2013-09-06 00:26:00,
2013-09-05 20:41:00,63.5,58.0,30.03,South,174,0.0,-999.0,83,-99.99,,,0.01,weatherlink.com 1.10,2013-09-06 00:41:00,
2013-09-05 20:56:00,63.1,58.0,30.03,South,174,0.0,-999.0,83,-99.99,,,0.01,weatherlink.com 1.10,2013-09-06 00:56:00,
2013-09-05 21:11:00,62.7,58.0,30.04,South,174,0.0,-999.0,85,-99.99,,,0.01,weatherlink.com 1.10,2013-09-06 01:11:00,
2013-09-05 21:26:00,62.4,58.0,30.04,South,174,0.0,-999.0,85,-99.99,,,0.01,weatherlink.com 1.10,2013-09-06 01:26:00,
2013-09-05 21:41:00,62.1,58.0,30.04,South,174,0.0,-999.0,87,-99.99,,,0.01,weatherlink.com 1.10,2013-09-06 01:41:00,
2013-09-05 21:56:00,61.6,58.0,30.04,South,174,0.0,-999.0,88,-99.99,,,0.01,weatherlink.com 1.10,2013-09-06 01:56:00,
2013-09-05 22:11:00,60.9,58.0,30.05,South,174,0.0,-999.0,90,-99.99,,,0.01,weatherlink.com 1.10,2013-09-06 02:11:00,
2013-09-05 22:26:00,60.5,58.0,30.06,South,174,0.0,-999.0,90,-99.99,,,0.01,weatherlink.com 1.10,2013-09-06 02:26:00,
2013-09-05 22:41:00,60.4,58.0,30.05,South,174,0.0,-999.0,90,-99.99,,,0.01,weatherlink.com 1.10,2013-09-06 02:41:00,
2013-09-05 22:56:00,60.2,57.0,30.05,South,174,0.0,-999.0,89,-99.99,,,0.01,weatherlink.com 1.10,2013-09-06 02:56:00,
2013-09-05 23:11:00,60.4,57.0,30.05,South,174,0.0,-999.0,89,-99.99,,,0.01,weatherlink.com 1.10,2013-09-06 03:11:00,
2013-09-05 23:26:00,60.4,57.0,30.05,South,174,0.0,-999.0,88,-99.99,,,0.01,weatherlink.com 1.10,2013-09-06 03:26:00,
2013-09-05 23:41:00,59.9,57.0,30.04,South,174,0.0,-999.0,89,-99.99,,,0.01,weatherlink.com 1.10,2013-09-06 03:41:00,
2013-09-05 23:56:00,59.8,57.0,30.04,South,188,0.0,-999.0,90,-99.99,,,0.01,weatherlink.com 1.10,2013-09-06 03:56:00,